This demonstration page uses our WeatherBlox Daily Observations layout. Learn more.

Left ArrowRight Arrow

Hourly Observations for October 30, 2021

Temp ( °F °C ) Dew Point ( °F °C ) Humidity (%) Winds ( mph kmh ) Pressure ( in mb ) Visibility ( mi km ) Precip ( " mm )
12:56 am 00:56 Clear 40 4.4 31 -0.6 70 70 S 5 7 29.94 1014 10 16 N/A
1:56 am 01:56 Clear 39 3.9 29 -1.7 67 67 SSW 6 9 29.93 1014 10 16 N/A
2:56 am 02:56 Clear 39 3.9 28 -2.2 65 65 SSW 7 11 29.91 1013 10 16 N/A
3:56 am 03:56 Clear 40 4.4 28 -2.2 63 63 SSW 7 11 29.90 1013 10 16 N/A
4:56 am 04:56 Clear 40 4.4 29 -1.7 65 65 SSW 10 17 29.86 1011 10 16 N/A
5:56 am 05:56 Clear 39 3.9 30 -1.1 70 70 SSW 10 17 29.85 1011 10 16 N/A
6:56 am 06:56 Clear 38 3.3 30 -1.1 73 73 SSW 9 15 29.85 1011 10 16 N/A
7:56 am 07:56 Clear 41 5 31 -0.6 67 67 SSW 15 24 29.83 1010 10 16 N/A
8:56 am 08:56 Sunny 42 5.6 32 undefined 68 68 SW 9 15 29.85 1011 10 16 N/A
9:56 am 09:56 Sunny 47 8.3 34 1.1 61 61 WSW 9 15 29.84 1011 10 16 N/A
10:56 am 10:56 Sunny 55 12.8 37 2.8 51 51 W 9 15 29.83 1010 10 16 N/A
11:56 am 11:56 Sunny 60 15.6 39 3.9 46 46 NW 18 30 29.84 1010 10 16 N/A
12:56 pm 12:56 Sunny 63 17.2 41 5 45 45 NNW 18 30 29.83 1010 10 16 N/A
1:56 pm 13:56 Sunny 65 18.3 43 6.1 45 45 N 21 33 29.83 1010 10 16 N/A
2:56 pm 14:56 Sunny 66 18.9 44 6.7 45 45 N 26 43 29.84 1011 10 16 N/A
3:56 pm 15:56 Sunny 66 18.9 45 7.2 47 47 N 30 48 29.86 1011 10 16 N/A
4:56 pm 16:56 Sunny 62 16.7 44 6.7 52 52 N 25 41 29.91 1013 10 16 N/A
5:56 pm 17:56 Sunny 59 15 43 6.1 56 56 N 20 31 29.96 1015 10 16 N/A
6:56 pm 18:56 Clear 54 12.2 42 5.6 64 64 N 21 33 30.00 1016 10 16 N/A
7:56 pm 19:56 Clear 51 10.6 40 4.4 66 66 N 18 30 30.04 1017 10 16 N/A
8:56 pm 20:56 Clear 49 9.4 40 4.4 71 71 N 15 24 30.07 1018 10 16 N/A
9:56 pm 21:56 Clear 46 7.8 38 3.3 73 73 N 18 30 30.08 1019 10 16 N/A
10:56 pm 22:56 Clear 44 6.7 37 2.8 76 76 N 14 22 30.11 1020 10 16 N/A
11:56 pm 23:56 Clear 42 5.6 36 2.2 79 79 NNW 14 22 30.14 1021 10 16 N/A

Powered by AerisWeather